Temperature
18 18 17 17 17 17 17 17 17 17 17 17 17 17 17 17 17 17 17 17 17 17 16 17 16 16 17 17 17 17 17 17 17 17 17 17 17 17 17 16 16 16 16
18 18 17 17 17 17 17 17 17 17 17 17 17 17 17 17 17 16 16 16 16 16 16 16 16 16 16 16 17 17 16 16 16 16 16 16 16 16 16 16 16 16 15
18 18 17 17 17 17 17 17 16 16 16 16 16 16 16 16 16 16 16 16 16 16 16 16 16 16 16 16 16 16 16 16 16 16 16 15 15 15 15 15 15 15 15
17 17 17 17 17 17 17 16 16 16 16 16 16 16 16 16 16 16 16 16 16 16 16 16 16 16 16 16 16 16 16 15 15 15 15 15 15 15 15 15 15 15 14
17 17 17 17 16 16 16 16 16 16 16 15 16 16 15 15 15 15 15 15 15 15 15 15 15 15 15 15 15 15 15 15 15 15 15 14 14 14 14 14 14 14 14
17 17 16 16 16 16 15 15 15 15 15 15 15 15 15 15 15 15 15 15 15 15 15 15 15 15 15 15 15 15 14 14 14 14 14 14 14 14 13 13 13 13 13
16 16 16 16 16 15 15 15 15 15 15 15 15 15 15 14 15 15 15 15 15 15 14 14 14 14 14 14 14 14 14 14 13 13 13 13 13 13 13 13 13 12 12
16 16 16 15 15 15 15 15 14 14 14 14 14 14 14 14 14 14 14 14 14 14 14 14 14 13 13 13 13 13 13 13 13 12 12 12 12 12 12 12 12 12 11
16 15 15 15 15 14 14 14 14 14 14 14 14 14 14 14 14 14 14 14 14 13 13 13 13 13 13 13 13 13 12 12 12 11 11 11 11 11 11 11 11 11 11
15 15 15 15 14 14 14 14 14 14 13 13 13 13 13 13 13 13 13 13 13 13 12 12 12 12 12 12 12 12 12 11 11 11 11 10 10 10 10 10 10 10 10
15 15 15 14 14 14 14 13 13 13 13 13 13 13 13 12 12 12 12 12 12 12 12 11 11 11 11 11 11 11 10 10 10 10 10 10 9 9 9 9 9 9 9
14 14 14 14 13 13 13 13 13 13 13 13 12 12 12 12 12 12 12 12 11 11 11 11 10 10 10 10 10 10 9 9 9 9 9 9 8 8 8 8 8 8 8
14 13 13 13 13 13 13 13 13 12 12 12 12 12 11 11 11 11 11 11 11 10 10 10 10 10 9 9 9 9 9 9 8 8 8 8 7 7 7 7 7 7 7
13 13 12 12 12 12 12 12 12 12 12 12 11 11 11 10 10 10 10 10 10 10 9 9 9 9 9 8 8 8 8 8 8 7 7 7 7 7 7 7 7 7 7
12 12 12 12 12 12 11 11 11 11 11 11 11 11 10 10 10 10 10 9 9 9 9 8 8 8 8 8 8 7 7 7 7 7 7 7 6 6 6 6 6 6 6
12 12 11 11 11 11 11 11 10 10 10 10 10 10 10 9 9 9 9 9 8 8 8 8 7 7 7 7 7 7 7 6 6 6 6 6 6 6 6 6 6 6 5
12 11 11 11 11 11 10 10 10 9 9 9 9 9 9 9 8 8 8 8 8 8 8 7 7 7 6 6 6 6 6 6 6 6 6 6 5 5 5 5 5 5 5
11 11 11 10 10 10 10 10 9 9 9 8 8 8 8 8 8 7 7 7 7 7 7 7 6 6 6 6 6 5 5 5 5 5 5 5 5 5 5 5 5 4 4
10 10 10 10 10 9 9 9 9 8 8 8 7 7 7 7 7 7 7 7 7 6 6 6 6 6 5 5 5 5 5 5 4 4 4 4 4 4 4 4 4 4 4
10 10 10 9 9 9 9 8 8 8 8 7 7 7 7 7 7 7 6 6 6 6 6 5 5 5 5 5 5 4 4 4 4 4 4 4 4 4 4 4 4 4 4
10 9 9 9 9 9 8 8 8 8 7 7 7 7 7 7 6 6 6 6 6 5 5 5 5 5 4 4 4 4 4 4 4 4 4 3 3 3 3 3 3 3 3
9 9 9 9 9 8 8 8 8 7 7 7 7 6 6 6 6 6 5 5 5 5 5 5 4 4 4 4 4 4 4 4 4 3 3 3 3 3 3 3 3 3 3
9 9 9 8 8 8 8 8 7 7 7 7 6 6 6 6 6 5 5 5 5 4 4 4 4 4 4 3 3 3 3 3 3 3 3 3 3 3 3 3 3 3 3
9 9 9 8 8 8 7 7 7 7 7 6 6 6 6 5 5 5 5 4 4 4 4 4 3 3 3 3 3 3 3 3 3 3 3 3 3 3 3 3 3 3 3
9 9 8 8 8 8 7 7 7 7 6 6 6 6 5 5 5 5 5 4 4 4 4 3 3 3 3 3 3 3 3 3 3 3 3 2 2 3 2 3 3 3 2
9 8 8 8 8 7 7 7 7 7 6 6 6 6 5 5 5 5 4 4 4 4 3 3 3 3 3 3 3 3 3 3 2 2 2 2 2 2 2 2 2 2 2
Wind_Speed
3 3 2 2 2 2 2 3 3 3 4 5 6 6 6 6 6 6 5 6 6 5 5 5 5 4 3 2 2 2 2 3 3 3 1 1 0 0 1 4 6 7 9
3 3 3 2 2 2 2 2 2 2 3 3 4 5 5 5 6 6 6 5 5 5 5 4 4 3 2 2 2 2 2 3 3 3 1 1 1 1 0 0 1 4 5
4 4 3 3 3 3 2 1 2 2 1 1 3 4 4 5 5 5 5 4 3 3 4 4 3 3 2 1 2 2 1 1 2 2 1 1 1 1 2 1 2 2 1
4 4 4 3 3 3 2 2 2 2 2 2 1 2 3 4 4 5 4 4 3 2 2 3 3 3 3 2 2 2 2 2 2 2 1 1 1 1 2 1 2 2 2
5 4 3 3 3 3 3 3 3 3 3 3 3 2 2 2 3 5 5 5 4 4 4 3 3 4 3 2 2 2 3 2 2 2 2 1 1 1 1 1 1 1 2
6 5 4 4 4 4 3 3 4 4 4 5 4 4 4 3 5 7 6 5 5 5 5 4 4 5 6 6 4 4 4 3 3 2 2 2 1 1 1 0 0 1 2
6 6 5 5 5 4 4 4 4 4 5 6 5 6 6 6 8 9 8 6 6 5 5 5 4 5 5 5 7 8 7 6 4 4 3 2 1 1 1 1 1 1 0
6 6 5 5 5 5 5 5 4 5 5 5 5 6 6 7 8 9 10 8 7 7 6 5 5 5 5 6 7 8 7 7 6 5 4 3 2 1 1 1 1 2 1
6 5 5 5 5 5 5 5 4 6 6 5 6 6 6 6 7 9 10 7 8 8 7 7 6 6 7 8 8 8 7 6 9 11 11 10 10 9 6 3 3 3 2
5 5 4 5 5 5 5 5 5 6 6 7 7 7 6 6 7 8 9 6 7 7 7 7 10 9 9 8 7 7 7 5 5 7 8 9 9 10 10 6 3 2 1
5 5 5 5 5 5 6 5 6 7 8 8 9 8 8 8 8 9 8 6 6 7 6 5 6 11 11 11 9 7 7 6 5 6 5 5 5 6 7 7 5 3 3
7 7 7 6 6 6 6 6 6 7 8 8 8 8 7 8 9 9 11 10 9 8 6 5 6 12 12 12 9 10 11 8 5 5 5 5 4 4 4 6 7 6 4
8 8 7 8 7 6 6 6 6 6 6 6 6 7 6 6 8 12 12 12 11 7 6 9 10 12 11 9 12 12 8 6 5 5 5 3 3 3 4 4 6 8 8
9 7 7 8 9 9 7 6 6 5 5 6 6 6 5 5 5 5 5 7 9 8 7 9 11 12 10 10 9 8 7 6 5 4 3 3 3 4 4 3 3 3 4
9 8 8 8 9 9 9 8 7 6 4 6 5 5 6 5 3 5 6 5 5 5 6 6 6 6 7 7 6 6 6 6 6 4 4 4 4 4 4 3 3 3 3
8 7 6 7 7 8 9 10 15 12 14 13 10 8 6 7 9 12 12 12 11 11 9 7 6 6 6 5 5 5 5 5 4 4 4 4 4 4 4 4 3 3 2
9 8 7 7 7 7 7 8 8 11 16 15 13 13 11 11 12 13 13 13 12 11 9 6 6 5 5 5 4 4 4 4 4 4 4 4 4 3 3 3 3 3 3
8 9 8 7 7 7 6 6 6 7 7 7 9 11 12 12 12 12 12 12 9 8 6 6 5 5 4 4 4 4 4 4 4 5 5 4 4 3 3 3 3 3 3
8 6 7 7 7 7 7 6 6 7 7 6 5 7 9 11 12 12 10 8 6 6 5 5 5 4 4 4 3 3 4 4 4 4 4 4 4 3 3 3 3 4 3
7 11 10 8 7 6 6 6 6 6 6 5 5 4 4 6 6 6 6 6 6 5 5 5 4 4 4 3 3 4 4 4 4 4 4 4 4 3 3 3 3 3 3
6 8 11 9 7 6 6 6 6 6 5 5 4 4 6 6 5 5 5 5 5 5 5 5 4 4 4 4 4 4 5 4 4 4 4 4 4 3 3 3 3 3 3
6 6 6 7 7 6 6 6 6 6 6 6 4 5 8 6 5 4 4 4 4 4 6 6 4 4 4 4 3 4 4 4 4 4 4 4 4 4 3 3 3 3 3
7 8 7 7 7 8 7 5 5 5 5 5 5 4 4 4 4 4 4 4 5 6 8 9 7 6 7 7 7 5 2 2 3 3 3 3 4 3 3 3 3 3 4
7 7 7 6 6 6 6 5 5 5 5 5 4 4 4 4 4 4 4 4 5 7 8 9 8 7 7 6 6 5 5 5 5 4 3 2 3 3 3 3 4 4 4
6 6 7 6 6 6 6 5 5 5 5 5 4 4 4 4 4 4 3 5 6 6 7 8 8 7 6 5 4 4 6 7 8 7 5 3 3 3 3 3 3 4 3
6 6 6 6 6 6 6 5 5 5 4 4 4 4 4 4 4 4 3 4 5 5 6 6 6 6 5 4 3 4 6 7 8 9 7 4 3 3 4 3 4 4 4
Wind_Direction
156 156 153 164 175 172 181 201 206 204 191 190 190 188 192 191 186 182 187 190 197 210 210 197 208 205 198 201 177 158 176 175 208 256 268 305 89 222 182 214 220 217 225
141 140 148 150 142 148 182 196 185 187 190 194 187 185 190 187 181 179 188 188 195 210 213 196 209 205 194 198 177 175 187 188 188 212 279 359 11 275 156 165 236 226 228
133 133 124 118 120 119 124 135 142 151 161 169 168 179 186 186 180 173 171 167 178 199 192 184 195 172 185 195 182 186 191 162 142 156 183 7 1 21 44 13 11 344 264
122 119 116 114 115 106 91 92 103 118 120 120 132 166 179 179 174 166 156 150 151 157 150 157 162 165 183 192 192 187 157 130 124 131 133 48 2 349 48 25 357 350 355
119 116 114 106 100 90 80 86 86 90 99 94 88 87 112 151 173 164 159 151 143 124 103 104 116 118 124 152 178 180 158 143 132 134 136 98 22 17 342 314 324 331 359
115 108 102 99 94 87 86 93 89 86 86 89 85 82 83 96 109 122 128 131 127 119 107 91 85 80 81 79 89 114 133 151 161 152 156 158 206 236 269 93 128 45 335
104 103 98 97 93 87 91 100 99 93 88 86 84 83 83 80 92 102 103 109 105 106 107 100 90 79 76 81 77 75 71 75 117 147 145 175 184 253 185 70 71 93 279
98 96 97 98 90 81 78 91 102 97 94 92 88 89 90 81 87 95 96 92 89 86 89 93 92 75 70 87 91 80 68 58 71 85 102 91 77 51 91 145 146 110 40
93 89 87 93 94 87 83 83 98 101 95 90 89 90 89 78 84 95 97 94 88 77 70 68 78 77 68 81 92 93 82 64 68 77 79 70 62 56 58 70 62 75 46
95 93 87 87 92 93 96 92 89 97 97 92 81 75 81 78 80 96 101 103 98 88 71 60 63 73 72 75 90 97 91 75 71 66 57 51 48 46 49 60 83 89 88
96 93 84 80 87 94 92 90 92 93 89 84 80 69 65 64 67 79 94 101 108 99 84 65 57 68 70 70 77 85 93 90 76 74 62 47 38 34 32 38 53 85 93
93 87 82 76 84 89 91 87 88 94 95 90 85 74 59 52 58 68 77 82 91 97 91 77 68 70 68 68 74 80 83 80 73 68 59 44 35 28 20 29 42 58 77
95 87 83 77 70 70 79 84 86 92 99 97 92 86 70 57 55 62 71 79 82 88 88 84 77 70 66 63 62 66 70 72 71 68 57 33 12 9 23 27 29 39 39
100 91 86 85 75 63 61 64 76 83 97 102 100 95 83 64 52 54 68 77 78 82 81 73 69 65 64 55 52 53 55 65 77 73 57 28 23 30 30 29 31 25 32
103 99 93 89 90 79 68 56 63 53 93 110 109 110 105 86 52 71 92 91 94 97 91 72 65 63 61 54 50 46 46 49 54 47 50 44 36 34 19 16 35 41 43
109 107 103 101 98 95 92 76 57 64 67 74 85 95 85 91 87 78 78 82 86 91 86 78 72 71 72 67 61 48 42 40 40 46 45 40 35 31 21 15 25 38 30
115 114 113 111 109 107 103 101 89 62 59 62 70 78 85 86 82 83 81 78 74 79 81 80 78 75 72 68 63 58 44 29 35 43 42 33 29 28 28 20 13 15 12
109 112 115 115 113 109 105 102 103 104 89 63 53 66 74 77 78 81 82 80 67 63 77 81 77 75 72 69 64 55 43 36 37 37 34 29 27 29 26 18 13 12 6
108 110 109 108 107 108 107 103 100 100 99 93 79 64 66 73 67 68 76 82 87 79 76 75 75 76 73 69 64 58 53 46 37 33 26 18 17 24 19 13 10 9 13
109 116 114 111 107 105 105 106 106 103 99 95 90 85 72 74 71 62 64 75 80 80 80 79 75 75 72 66 59 56 52 41 32 28 15 8 7 15 12 7 8 6 353
105 114 116 111 109 109 107 108 109 107 104 98 91 92 101 95 92 87 81 80 86 89 87 84 77 71 63 59 59 57 54 39 27 19 11 1 360 2 359 2 359 359 350
103 103 108 113 112 110 112 110 108 107 107 104 95 83 88 88 88 86 84 80 79 86 97 98 88 78 76 74 73 63 50 31 10 1 357 355 359 360 355 355 356 352 348
111 108 106 108 110 114 112 110 111 112 111 109 106 96 90 93 94 96 96 92 92 94 100 101 98 90 84 80 79 79 68 10 333 333 347 351 353 352 347 341 338 338 335
118 117 117 115 113 114 115 115 116 119 120 117 112 111 112 112 111 111 106 101 102 107 109 110 114 115 103 88 74 60 44 18 3 355 347 338 338 335 334 331 326 326 323
121 121 121 122 121 120 119 119 119 120 120 123 124 124 122 119 117 116 115 115 117 119 122 123 124 124 117 102 78 48 32 24 17 10 2 343 334 331 327 323 324 327 331
121 123 125 125 124 125 127 129 128 127 127 131 132 134 132 129 130 129 127 127 129 135 139 142 142 140 133 114 77 42 29 20 15 14 13 2 349 337 337 331 333 335 337
Height
1516 1517 1518 1519 1520 1521 1521 1522 1523 1524 1525 1527 1529 1531 1532 1535 1537 1538 1540 1543 1545 1546 1548 1549 1550 1552 1553 1554 1555 1555 1556 1557 1556 1557 1557 1558 1558 1558 1558 1559 1559 1559 1559
1516 1516 1516 1517 1517 1518 1518 1519 1520 1520 1522 1523 1524 1526 1528 1530 1532 1534 1536 1538 1540 1542 1543 1545 1546 1548 1549 1550 1550 1551 1552 1552 1553 1553 1554 1554 1555 1555 1555 1555 1556 1556 1556
1515 1515 1515 1515 1516 1516 1516 1516 1517 1517 1518 1519 1521 1522 1524 1526 1528 1530 1532 1534 1536 1537 1539 1540 1542 1543 1544 1545 1546 1547 1547 1548 1549 1549 1550 1551 1551 1552 1552 1552 1552 1553 1553
1516 1515 1515 1515 1515 1515 1514 1514 1514 1515 1516 1516 1517 1518 1520 1522 1524 1526 1528 1531 1533 1534 1536 1537 1538 1539 1540 1541 1542 1543 1544 1544 1545 1546 1546 1547 1548 1548 1549 1549 1549 1549 1549
1516 1515 1515 1515 1515 1514 1513 1513 1513 1514 1514 1515 1516 1517 1517 1519 1521 1523 1525 1528 1530 1532 1533 1534 1536 1537 1537 1538 1538 1539 1540 1540 1541 1542 1543 1544 1544 1545 1545 1545 1545 1546 1546
1516 1515 1515 1515 1514 1514 1513 1513 1513 1513 1514 1515 1516 1516 1517 1518 1519 1521 1524 1526 1528 1529 1531 1532 1533 1534 1534 1535 1535 1536 1536 1537 1538 1539 1540 1540 1541 1542 1542 1542 1542 1542 1542
1516 1516 1516 1515 1514 1514 1513 1513 1513 1514 1514 1515 1516 1517 1517 1518 1520 1522 1524 1525 1526 1527 1529 1530 1531 1532 1532 1533 1533 1533 1534 1535 1536 1537 1537 1537 1538 1538 1539 1539 1539 1539 1539
1516 1516 1516 1516 1515 1514 1514 1513 1514 1515 1515 1516 1516 1517 1519 1520 1521 1522 1523 1525 1525 1527 1528 1529 1530 1531 1531 1531 1532 1532 1532 1533 1533 1533 1534 1535 1535 1535 1536 1536 1536 1536 1536
1516 1516 1516 1516 1515 1515 1514 1514 1515 1515 1516 1517 1517 1519 1520 1521 1522 1523 1524 1525 1526 1527 1528 1529 1529 1530 1530 1531 1531 1531 1531 1532 1532 1533 1533 1533 1533 1533 1533 1534 1533 1534 1533
1516 1516 1516 1516 1516 1516 1515 1516 1516 1516 1517 1518 1519 1520 1521 1522 1523 1524 1525 1526 1526 1527 1528 1529 1529 1530 1530 1530 1530 1531 1531 1532 1533 1532 1533 1533 1533 1532 1532 1532 1532 1532 1531
1516 1516 1516 1516 1516 1517 1517 1517 1517 1518 1518 1519 1520 1521 1522 1523 1524 1525 1526 1526 1527 1527 1528 1529 1530 1531 1531 1531 1531 1531 1532 1532 1533 1533 1533 1533 1533 1532 1532 1531 1531 1531 1531
1516 1516 1516 1517 1517 1518 1518 1518 1519 1519 1520 1521 1522 1523 1523 1525 1526 1526 1527 1527 1528 1528 1529 1530 1531 1531 1532 1532 1532 1533 1533 1533 1533 1533 1533 1533 1533 1533 1532 1532 1532 1531 1531
1516 1517 1517 1518 1518 1519 1519 1520 1520 1521 1522 1523 1523 1524 1525 1526 1527 1528 1528 1529 1529 1530 1531 1532 1532 1533 1533 1534 1534 1534 1534 1534 1534 1534 1534 1534 1534 1534 1533 1533 1532 1531 1531
1516 1517 1518 1518 1519 1520 1520 1521 1522 1522 1523 1524 1525 1525 1526 1527 1529 1529 1530 1530 1531 1532 1532 1533 1533 1534 1534 1535 1535 1535 1535 1535 1535 1535 1535 1535 1534 1534 1533 1532 1531 1530 1530
1517 1518 1519 1520 1521 1521 1522 1522 1523 1524 1525 1526 1526 1527 1528 1528 1530 1531 1531 1532 1533 1533 1534 1534 1534 1535 1535 1536 1536 1536 1536 1536 1536 1536 1535 1535 1534 1533 1533 1532 1531 1529 1528
1518 1519 1520 1521 1522 1523 1523 1524 1525 1526 1527 1528 1528 1529 1529 1530 1531 1532 1533 1534 1534 1535 1536 1536 1536 1536 1537 1538 1538 1538 1538 1537 1537 1536 1536 1535 1534 1533 1532 1531 1530 1529 1527
1519 1521 1522 1523 1524 1525 1525 1526 1526 1528 1529 1530 1531 1532 1532 1533 1534 1535 1536 1536 1537 1538 1538 1538 1539 1539 1540 1540 1540 1540 1539 1539 1538 1537 1536 1535 1534 1533 1532 1531 1530 1528 1527
1522 1523 1524 1524 1525 1527 1528 1529 1529 1530 1531 1533 1534 1535 1536 1536 1537 1538 1539 1539 1539 1540 1540 1541 1541 1542 1542 1542 1541 1541 1540 1539 1538 1537 1536 1535 1534 1533 1532 1530 1529 1528 1526
1524 1525 1526 1527 1528 1529 1530 1531 1532 1533 1534 1535 1537 1538 1539 1540 1540 1541 1542 1542 1542 1542 1543 1543 1544 1544 1544 1543 1543 1542 1541 1540 1539 1538 1537 1535 1534 1533 1532 1530 1529 1528 1526
1526 1527 1528 1529 1530 1531 1533 1534 1535 1536 1537 1539 1540 1541 1542 1543 1543 1544 1544 1544 1545 1545 1545 1545 1545 1545 1545 1544 1543 1542 1541 1540 1539 1538 1537 1536 1534 1533 1532 1530 1529 1528 1526
1529 1530 1531 1532 1533 1534 1536 1537 1538 1539 1540 1541 1543 1544 1545 1545 1546 1546 1547 1547 1547 1547 1547 1547 1547 1546 1546 1545 1544 1543 1541 1540 1539 1538 1537 1536 1534 1533 1532 1531 1529 1528 1526
1531 1532 1534 1535 1536 1538 1539 1541 1542 1543 1544 1544 1545 1547 1548 1548 1548 1549 1549 1549 1549 1549 1549 1549 1548 1547 1546 1545 1544 1543 1542 1540 1539 1538 1537 1536 1535 1533 1532 1531 1529 1528 1526
1534 1535 1536 1538 1539 1541 1542 1543 1545 1546 1546 1547 1548 1549 1550 1550 1550 1551 1551 1551 1551 1550 1550 1550 1549 1548 1547 1546 1545 1543 1542 1540 1539 1538 1537 1536 1534 1533 1532 1531 1529 1528 1526
1537 1538 1539 1541 1542 1543 1545 1546 1547 1548 1549 1550 1550 1551 1552 1552 1552 1552 1552 1552 1552 1551 1551 1550 1550 1549 1547 1546 1545 1543 1541 1540 1539 1537 1536 1535 1534 1533 1532 1530 1529 1527 1526
1539 1540 1542 1543 1544 1545 1547 1548 1549 1550 1550 1551 1552 1552 1553 1553 1553 1553 1553 1553 1553 1552 1552 1551 1550 1549 1547 1546 1545 1543 1541 1540 1538 1537 1536 1535 1534 1532 1531 1530 1528 1527 1525
1541 1542 1544 1545 1546 1547 1548 1549 1550 1551 1552 1552 1553 1553 1553 1554 1554 1554 1554 1554 1553 1553 1552 1551 1550 1549 1547 1546 1544 1543 1541 1539 1538 1536 1535 1534 1533 1532 1530 1529 1527 1526 1524